#Datum;Uhrzeit;WR;Pac;DaySum;Status;WR;Pac;DaySum;Status;Pdc1;Udc;Temp;WR;Pac;DaySum;Status;Pdc1;Udc;Temp;WR;Pac;DaySum;Status;Pdc1;Udc;Temp;WR;Pac;DaySum;Status;Pdc1;Pdc2;Udc1;Udc2;Temp;WR;Pac;DaySum;Status;Pdc1;Pdc2;Udc1;Udc2;Temp;WR;Pac;DaySum;Status;Pdc1;Udc;Temp;WR;Pac;DaySum;Status;Pdc1;Udc;Temp;WR;Pac;DaySum;Status;Pdc1;Udc;Temp
19.12.17;23:55:00;1;1072;10263;0;2;0;3040;0;0;0;0;3;0;1865;0;0;0;0;4;0;2563;0;0;0;0;5;0;6406;0;0;0;0;0;0;6;0;4650;0;0;0;0;0;0;7;0;3254;0;0;0;0;8;0;3267;0;0;0;0;9;0;1723;0;0;0;0
19.12.17;23:50:00;1;454;10196;0;2;0;3040;0;0;0;0;3;0;1865;0;0;0;0;4;0;2563;0;0;0;0;5;0;6406;0;0;0;0;0;0;6;0;4650;0;0;0;0;0;0;7;0;3254;0;0;0;0;8;0;3267;0;0;0;0;9;0;1723;0;0;0;0
19.12.17;23:45:00;1;457;10158;0;2;0;3040;0;0;0;0;3;0;1865;0;0;0;0;4;0;2563;0;0;0;0;5;0;6406;0;0;0;0;0;0;6;0;4650;0;0;0;0;0;0;7;0;3254;0;0;0;0;8;0;3267;0;0;0;0;9;0;1723;0;0;0;0
19.12.17;23:40:00;1;694;10120;0;2;0;3040;0;0;0;0;3;0;1865;0;0;0;0;4;0;2563;0;0;0;0;5;0;6406;0;0;0;0;0;0;6;0;4650;0;0;0;0;0;0;7;0;3254;0;0;0;0;8;0;3267;0;0;0;0;9;0;1723;0;0;0;0
19.12.17;23:35:00;1;498;10051;0;2;0;3040;0;0;0;0;3;0;1865;0;0;0;0;4;0;2563;0;0;0;0;5;0;6406;0;0;0;0;0;0;6;0;4650;0;0;0;0;0;0;7;0;3254;0;0;0;0;8;0;3267;0;0;0;0;9;0;1723;0;0;0;0
19.12.17;23:30:00;1;501;10010;0;2;0;3040;0;0;0;0;3;0;1865;0;0;0;0;4;0;2563;0;0;0;0;5;0;6406;0;0;0;0;0;0;6;0;4650;0;0;0;0;0;0;7;0;3254;0;0;0;0;8;0;3267;0;0;0;0;9;0;1723;0;0;0;0
19.12.17;23:25:00;1;822;9968;0;2;0;3040;0;0;0;0;3;0;1865;0;0;0;0;4;0;2563;0;0;0;0;5;0;6406;0;0;0;0;0;0;6;0;4650;0;0;0;0;0;0;7;0;3254;0;0;0;0;8;0;3267;0;0;0;0;9;0;1723;0;0;0;0
19.12.17;23:20:00;1;470;9901;0;2;0;3040;0;0;0;0;3;0;1865;0;0;0;0;4;0;2563;0;0;0;0;5;0;6406;0;0;0;0;0;0;6;0;4650;0;0;0;0;0;0;7;0;3254;0;0;0;0;8;0;3267;0;0;0;0;9;0;1723;0;0;0;0
19.12.17;23:15:00;1;535;9861;0;2;0;3040;0;0;0;0;3;0;1865;0;0;0;0;4;0;2563;0;0;0;0;5;0;6406;0;0;0;0;0;0;6;0;4650;0;0;0;0;0;0;7;0;3254;0;0;0;0;8;0;3267;0;0;0;0;9;0;1723;0;0;0;0
19.12.17;23:10:00;1;739;9816;0;2;0;3040;0;0;0;0;3;0;1865;0;0;0;0;4;0;2563;0;0;0;0;5;0;6406;0;0;0;0;0;0;6;0;4650;0;0;0;0;0;0;7;0;3254;0;0;0;0;8;0;3267;0;0;0;0;9;0;1723;0;0;0;0
19.12.17;23:05:00;1;517;9743;0;2;0;3040;0;0;0;0;3;0;1865;0;0;0;0;4;0;2563;0;0;0;0;5;0;6406;0;0;0;0;0;0;6;0;4650;0;0;0;0;0;0;7;0;3254;0;0;0;0;8;0;3267;0;0;0;0;9;0;1723;0;0;0;0
19.12.17;23:00:00;1;529;9700;0;2;0;3040;0;0;0;0;3;0;1865;0;0;0;0;4;0;2563;0;0;0;0;5;0;6406;0;0;0;0;0;0;6;0;4650;0;0;0;0;0;0;7;0;3254;0;0;0;0;8;0;3267;0;0;0;0;9;0;1723;0;0;0;0
19.12.17;22:55:00;1;981;9655;0;2;0;3040;0;0;0;0;3;0;1865;0;0;0;0;4;0;2563;0;0;0;0;5;0;6406;2;0;0;0;0;0;6;0;4650;2;0;0;0;0;0;7;0;3254;0;0;0;0;8;0;3267;0;0;0;0;9;0;1723;0;0;0;0
19.12.17;22:50:00;1;604;9578;0;2;0;3040;0;0;0;0;3;0;1865;0;0;0;0;4;0;2563;0;0;0;0;5;0;6406;2;0;0;0;0;0;6;0;4650;2;0;0;0;0;0;7;0;3254;0;0;0;0;8;0;3267;0;0;0;0;9;0;1723;0;0;0;0
19.12.17;22:45:00;1;565;9528;0;2;0;3040;0;0;0;0;3;0;1865;0;0;0;0;4;0;2563;0;0;0;0;5;0;6406;2;0;0;0;0;0;6;0;4650;2;0;0;0;0;0;7;0;3254;0;0;0;0;8;0;3267;0;0;0;0;9;0;1723;0;0;0;0
19.12.17;22:40:00;1;829;9481;0;2;0;3040;0;0;0;0;3;0;1865;0;0;0;0;4;0;2563;0;0;0;0;5;0;6406;2;0;0;0;0;0;6;0;4650;2;0;0;0;0;0;7;0;3254;0;0;0;0;8;0;3267;0;0;0;0;9;0;1723;0;0;0;0
19.12.17;22:35:00;1;558;9406;0;2;0;3040;0;0;0;0;3;0;1865;0;0;0;0;4;0;2563;0;0;0;0;5;0;6406;2;0;0;0;0;0;6;0;4650;2;0;0;0;0;0;7;0;3254;0;0;0;0;8;0;3267;0;0;0;0;9;0;1723;0;0;0;0
19.12.17;22:30:00;1;533;9359;0;2;0;3040;0;0;0;0;3;0;1865;0;0;0;0;4;0;2563;0;0;0;0;5;0;6406;2;0;0;0;0;0;6;0;4650;2;0;0;0;0;0;7;0;3254;0;0;0;0;8;0;3267;0;0;0;0;9;0;1723;0;0;0;0
19.12.17;22:25:00;1;665;9315;0;2;0;3040;0;0;0;0;3;0;1865;0;0;0;0;4;0;2563;0;0;0;0;5;0;6406;2;0;0;0;0;0;6;0;4650;2;0;0;0;0;0;7;0;3254;0;0;0;0;8;0;3267;0;0;0;0;9;0;1723;0;0;0;0
19.12.17;22:20:00;1;457;9249;0;2;0;3040;0;0;0;0;3;0;1865;0;0;0;0;4;0;2563;0;0;0;0;5;0;6406;2;0;0;0;0;0;6;0;4650;2;0;0;0;0;0;7;0;3254;0;0;0;0;8;0;3267;0;0;0;0;9;0;1723;0;0;0;0
19.12.17;22:15:00;1;458;9211;0;2;0;3040;0;0;0;0;3;0;1865;0;0;0;0;4;0;2563;0;0;0;0;5;0;6406;2;0;0;0;0;0;6;0;4650;2;0;0;0;0;0;7;0;3254;0;0;0;0;8;0;3267;0;0;0;0;9;0;1723;0;0;0;0
19.12.17;22:10:00;1;670;9172;0;2;0;3040;0;0;0;0;3;0;1865;0;0;0;0;4;0;2563;0;0;0;0;5;0;6406;2;0;0;0;0;0;6;0;4650;2;0;0;0;0;0;7;0;3254;0;0;0;0;8;0;3267;0;0;0;0;9;0;1723;0;0;0;0
19.12.17;22:05:00;1;452;9105;0;2;0;3040;0;0;0;0;3;0;1865;0;0;0;0;4;0;2563;0;0;0;0;5;0;6406;2;0;0;0;0;0;6;0;4650;2;0;0;0;0;0;7;0;3254;0;0;0;0;8;0;3267;0;0;0;0;9;0;1723;0;0;0;0
19.12.17;22:00:00;1;458;9067;0;2;0;3040;0;0;0;0;3;0;1865;0;0;0;0;4;0;2563;0;0;0;0;5;0;6406;2;0;0;0;0;0;6;0;4650;2;0;0;0;0;0;7;0;3254;0;0;0;0;8;0;3267;0;0;0;0;9;0;1723;0;0;0;0
19.12.17;21:55:00;1;1006;9029;0;2;0;3040;0;0;0;0;3;0;1865;0;0;0;0;4;0;2563;0;0;0;0;5;0;6406;2;0;0;0;0;0;6;0;4650;2;0;0;0;0;0;7;0;3254;0;0;0;0;8;0;3267;0;0;0;0;9;0;1723;0;0;0;0
19.12.17;21:50:00;1;475;8962;0;2;0;3040;0;0;0;0;3;0;1865;0;0;0;0;4;0;2563;0;0;0;0;5;0;6406;2;0;0;0;0;0;6;0;4650;2;0;0;0;0;0;7;0;3254;0;0;0;0;8;0;3267;0;0;0;0;9;0;1723;0;0;0;0
19.12.17;21:45:00;1;510;8922;0;2;0;3040;0;0;0;0;3;0;1865;0;0;0;0;4;0;2563;0;0;0;0;5;0;6406;2;0;0;0;0;0;6;0;4650;2;0;0;0;0;0;7;0;3254;0;0;0;0;8;0;3267;0;0;0;0;9;0;1723;0;0;0;0
19.12.17;21:40:00;1;732;8879;0;2;0;3040;0;0;0;0;3;0;1865;0;0;0;0;4;0;2563;0;0;0;0;5;0;6406;2;0;0;0;0;0;6;0;4650;2;0;0;0;0;0;7;0;3254;0;0;0;0;8;0;3267;0;0;0;0;9;0;1723;0;0;0;0
19.12.17;21:35:00;1;485;8808;0;2;0;3040;0;0;0;0;3;0;1865;0;0;0;0;4;0;2563;0;0;0;0;5;0;6406;2;0;0;0;0;0;6;0;4650;2;0;0;0;0;0;7;0;3254;0;0;0;0;8;0;3267;0;0;0;0;9;0;1723;0;0;0;0
19.12.17;21:30:00;1;469;8767;0;2;0;3040;0;0;0;0;3;0;1865;0;0;0;0;4;0;2563;0;0;0;0;5;0;6406;2;0;0;0;0;0;6;0;4650;2;0;0;0;0;0;7;0;3254;0;0;0;0;8;0;3267;0;0;0;0;9;0;1723;0;0;0;0
19.12.17;21:25:00;1;787;8728;0;2;0;3040;0;0;0;0;3;0;1865;0;0;0;0;4;0;2563;0;0;0;0;5;0;6406;2;0;0;0;0;0;6;0;4650;2;0;0;0;0;0;7;0;3254;0;0;0;0;8;0;3267;0;0;0;0;9;0;1723;0;0;0;0
19.12.17;21:20:00;1;465;8661;0;2;0;3040;0;0;0;0;3;0;1865;0;0;0;0;4;0;2563;0;0;0;0;5;0;6406;2;0;0;0;0;0;6;0;4650;2;0;0;0;0;0;7;0;3254;0;0;0;0;8;0;3267;0;0;0;0;9;0;1723;0;0;0;0
19.12.17;21:15:00;1;466;8622;0;2;0;3040;0;0;0;0;3;0;1865;0;0;0;0;4;0;2563;0;0;0;0;5;0;6406;2;0;0;0;0;0;6;0;4650;2;0;0;0;0;0;7;0;3254;0;0;0;0;8;0;3267;0;0;0;0;9;0;1723;0;0;0;0
19.12.17;21:10:00;1;671;8584;0;2;0;3040;0;0;0;0;3;0;1865;0;0;0;0;4;0;2563;0;0;0;0;5;0;6406;2;0;0;0;0;0;6;0;4650;2;0;0;0;0;0;7;0;3254;0;0;0;0;8;0;3267;0;0;0;0;9;0;1723;0;0;0;0
19.12.17;21:05:00;1;494;8516;0;2;0;3040;0;0;0;0;3;0;1865;0;0;0;0;4;0;2563;0;0;0;0;5;0;6406;2;0;0;0;0;0;6;0;4650;2;0;0;0;0;0;7;0;3254;0;0;0;0;8;0;3267;0;0;0;0;9;0;1723;0;0;0;0
19.12.17;21:00:00;1;534;8475;0;2;0;3040;0;0;0;0;3;0;1865;0;0;0;0;4;0;2563;0;0;0;0;5;0;6406;2;0;0;0;0;0;6;0;4650;2;0;0;0;0;0;7;0;3254;0;0;0;0;8;0;3267;0;0;0;0;9;0;1723;0;0;0;0
19.12.17;20:55:00;1;711;8430;0;2;0;3040;0;0;0;0;3;0;1865;0;0;0;0;4;0;2563;0;0;0;0;5;0;6406;2;0;0;0;0;0;6;0;4650;2;0;0;0;0;0;7;0;3254;0;0;0;0;8;0;3267;0;0;0;0;9;0;1723;0;0;0;0
19.12.17;20:50:00;1;586;8357;0;2;0;3040;0;0;0;0;3;0;1865;0;0;0;0;4;0;2563;0;0;0;0;5;0;6406;2;0;0;0;0;0;6;0;4650;2;0;0;0;0;0;7;0;3254;0;0;0;0;8;0;3267;0;0;0;0;9;0;1723;0;0;0;0
19.12.17;20:45:00;1;577;8307;0;2;0;3040;0;0;0;0;3;0;1865;0;0;0;0;4;0;2563;0;0;0;0;5;0;6406;2;0;0;0;0;0;6;0;4650;2;0;0;0;0;0;7;0;3254;0;0;0;0;8;0;3267;0;0;0;0;9;0;1723;0;0;0;0
19.12.17;20:40:00;1;658;8259;0;2;0;3040;0;0;0;0;3;0;1865;0;0;0;0;4;0;2563;0;0;0;0;5;0;6406;2;0;0;0;0;0;6;0;4650;2;0;0;0;0;0;7;0;3254;0;0;0;0;8;0;3267;0;0;0;0;9;0;1723;0;0;0;0
19.12.17;20:35:00;1;734;8189;0;2;0;3040;0;0;0;0;3;0;1865;0;0;0;0;4;0;2563;0;0;0;0;5;0;6406;2;0;0;0;0;0;6;0;4650;2;0;0;0;0;0;7;0;3254;0;0;0;0;8;0;3267;0;0;0;0;9;0;1723;0;0;0;0
19.12.17;20:30:00;1;531;8138;0;2;0;3040;0;0;0;0;3;0;1865;0;0;0;0;4;0;2563;0;0;0;0;5;0;6406;2;0;0;0;0;0;6;0;4650;2;0;0;0;0;0;7;0;3254;0;0;0;0;8;0;3267;0;0;0;0;9;0;1723;0;0;0;0
19.12.17;20:25:00;1;500;8093;0;2;0;3040;0;0;0;0;3;0;1865;0;0;0;0;4;0;2563;0;0;0;0;5;0;6406;2;0;0;0;0;0;6;0;4650;2;0;0;0;0;0;7;0;3254;0;0;0;0;8;0;3267;0;0;0;0;9;0;1723;0;0;0;0
19.12.17;20:20:00;1;705;8039;0;2;0;3040;0;0;0;0;3;0;1865;0;0;0;0;4;0;2563;0;0;0;0;5;0;6406;2;0;0;0;0;0;6;0;4650;2;0;0;0;0;0;7;0;3254;0;0;0;0;8;0;3267;0;0;0;0;9;0;1723;0;0;0;0
19.12.17;20:15:00;1;468;7982;0;2;0;3040;0;0;0;0;3;0;1865;0;0;0;0;4;0;2563;0;0;0;0;5;0;6406;2;0;0;0;0;0;6;0;4650;2;0;0;0;0;0;7;0;3254;0;0;0;0;8;0;3267;0;0;0;0;9;0;1723;0;0;0;0
19.12.17;20:10:00;1;466;7943;0;2;0;3040;0;0;0;0;3;0;1865;0;0;0;0;4;0;2563;0;0;0;0;5;0;6406;2;0;0;0;0;0;6;0;4650;2;0;0;0;0;0;7;0;3254;0;0;0;0;8;0;3267;0;0;0;0;9;0;1723;0;0;0;0
19.12.17;20:05:00;1;670;7895;0;2;0;3040;0;0;0;0;3;0;1865;0;0;0;0;4;0;2563;0;0;0;0;5;0;6406;2;0;0;0;0;0;6;0;4650;2;0;0;0;0;0;7;0;3254;0;0;0;0;8;0;3267;0;0;0;0;9;0;1723;0;0;0;0
19.12.17;20:00:00;1;471;7837;0;2;0;3040;0;0;0;0;3;0;1865;0;0;0;0;4;0;2563;0;0;0;0;5;0;6406;2;0;0;0;0;0;6;0;4650;2;0;0;0;0;0;7;0;3254;0;0;0;0;8;0;3267;0;0;0;0;9;0;1723;0;0;0;0
19.12.17;19:55:00;1;495;7798;0;2;0;3040;0;0;0;0;3;0;1865;0;0;0;0;4;0;2563;0;0;0;0;5;0;6406;2;0;0;0;0;0;6;0;4650;2;0;0;0;0;0;7;0;3254;0;0;0;0;8;0;3267;0;0;0;0;9;0;1723;0;0;0;0
19.12.17;19:50:00;1;710;7746;0;2;0;3040;0;0;0;0;3;0;1865;0;0;0;0;4;0;2563;0;0;0;0;5;0;6406;2;0;0;0;0;0;6;0;4650;2;0;0;0;0;0;7;0;3254;0;0;0;0;8;0;3267;0;0;0;0;9;0;1723;0;0;0;0
19.12.17;19:45:00;1;509;7684;0;2;0;3040;0;0;0;0;3;0;1865;0;0;0;0;4;0;2563;0;0;0;0;5;0;6406;2;0;0;0;0;0;6;0;4650;2;0;0;0;0;0;7;0;3254;0;0;0;0;8;0;3267;0;0;0;0;9;0;1723;0;0;0;0
19.12.17;19:40:00;1;463;7642;0;2;0;3040;0;0;0;0;3;0;1865;0;0;0;0;4;0;2563;0;0;0;0;5;0;6406;2;0;0;0;0;0;6;0;4650;2;0;0;0;0;0;7;0;3254;0;0;0;0;8;0;3267;0;0;0;0;9;0;1723;0;0;0;0
19.12.17;19:35:00;1;710;7599;0;2;0;3040;0;0;0;0;3;0;1865;0;0;0;0;4;0;2563;0;0;0;0;5;0;6406;2;0;0;0;0;0;6;0;4650;2;0;0;0;0;0;7;0;3254;0;0;0;0;8;0;3267;0;0;0;0;9;0;1723;0;0;0;0
19.12.17;19:30:00;1;465;7534;0;2;0;3040;0;0;0;0;3;0;1865;0;0;0;0;4;0;2563;0;0;0;0;5;0;6406;2;0;0;0;0;0;6;0;4650;2;0;0;0;0;0;7;0;3254;0;0;0;0;8;0;3267;0;0;0;0;9;0;1723;0;0;0;0
19.12.17;19:25:00;1;254;7497;0;2;0;3040;0;0;0;0;3;0;1865;0;0;0;0;4;0;2563;0;0;0;0;5;0;6406;2;0;0;0;0;0;6;0;4650;2;0;0;0;0;0;7;0;3254;0;0;0;0;8;0;3267;0;0;0;0;9;0;1723;0;0;0;0
19.12.17;19:20:00;1;455;7470;0;2;0;3040;0;0;0;0;3;0;1865;0;0;0;0;4;0;2563;0;0;0;0;5;0;6406;2;0;0;0;0;0;6;0;4650;2;0;0;0;0;0;7;0;3254;0;0;0;0;8;0;3267;0;0;0;0;9;0;1723;0;0;0;0
19.12.17;19:15:00;1;253;7426;0;2;0;3040;0;0;0;0;3;0;1865;0;0;0;0;4;0;2563;0;0;0;0;5;0;6406;2;0;0;0;0;0;6;0;4650;2;0;0;0;0;0;7;0;3254;0;0;0;0;8;0;3267;0;0;0;0;9;0;1723;0;0;0;0
19.12.17;19:10:00;1;252;7405;0;2;0;3040;0;0;0;0;3;0;1865;0;0;0;0;4;0;2563;0;0;0;0;5;0;6406;2;0;0;0;0;0;6;0;4650;2;0;0;0;0;0;7;0;3254;0;0;0;0;8;0;3267;0;0;0;0;9;0;1723;0;0;0;0
19.12.17;19:05:00;1;454;7375;0;2;0;3040;0;0;0;0;3;0;1865;0;0;0;0;4;0;2563;0;0;0;0;5;0;6406;2;0;0;0;0;0;6;0;4650;2;0;0;0;0;0;7;0;3254;0;0;0;0;8;0;3267;0;0;0;0;9;0;1723;0;0;0;0
19.12.17;19:00:00;1;258;7335;0;2;0;3040;0;0;0;0;3;0;1865;0;0;0;0;4;0;2563;0;0;0;0;5;0;6406;2;0;0;0;0;0;6;0;4650;2;0;0;0;0;0;7;0;3254;0;0;0;0;8;0;3267;0;0;0;0;9;0;1723;0;0;0;0
19.12.17;18:55:00;1;294;7312;0;2;0;3040;0;0;0;0;3;0;1865;0;0;0;0;4;0;2563;0;0;0;0;5;0;6406;2;0;0;0;0;0;6;0;4650;2;0;0;0;0;0;7;0;3254;0;0;0;0;8;0;3267;0;0;0;0;9;0;1723;0;0;0;0
19.12.17;18:50:00;1;494;7276;0;2;0;3040;0;0;0;0;3;0;1865;0;0;0;0;4;0;2563;0;0;0;0;5;0;6406;2;0;0;0;0;0;6;0;4650;2;0;0;0;0;0;7;0;3254;0;0;0;0;8;0;3267;0;0;0;0;9;0;1723;0;0;0;0
19.12.17;18:45:00;1;292;7234;0;2;0;3040;0;0;0;0;3;0;1865;0;0;0;0;4;0;2563;0;0;0;0;5;0;6406;2;0;0;0;0;0;6;0;4650;2;0;0;0;0;0;7;0;3254;0;0;0;0;8;0;3267;0;0;0;0;9;0;1723;0;0;0;0
19.12.17;18:40:00;1;316;7208;0;2;0;3040;0;0;0;0;3;0;1865;0;0;0;0;4;0;2563;0;0;0;0;5;0;6406;2;0;0;0;0;0;6;0;4650;2;0;0;0;0;0;7;0;3254;0;0;0;0;8;0;3267;0;0;0;0;9;0;1723;0;0;0;0
19.12.17;18:35:00;1;516;7168;0;2;0;3040;0;0;0;0;3;0;1865;0;0;0;0;4;0;2563;0;0;0;0;5;0;6406;2;0;0;0;0;0;6;0;4650;2;0;0;0;0;0;7;0;3254;0;0;0;0;8;0;3267;0;0;0;0;9;0;1723;0;0;0;0
19.12.17;18:30:00;1;318;7126;0;2;0;3040;0;0;0;0;3;0;1865;0;0;0;0;4;0;2563;0;0;0;0;5;0;6406;2;0;0;0;0;0;6;0;4650;2;0;0;0;0;0;7;0;3254;0;0;0;0;8;0;3267;0;0;0;0;9;0;1723;0;0;0;0
19.12.17;18:25:00;1;511;7099;0;2;0;3040;0;0;0;0;3;0;1865;0;0;0;0;4;0;2563;0;0;0;0;5;0;6406;2;0;0;0;0;0;6;0;4650;2;0;0;0;0;0;7;0;3254;0;0;0;0;8;0;3267;0;0;0;0;9;0;1723;0;0;0;0
19.12.17;18:20:00;1;560;7046;0;2;0;3040;0;0;0;0;3;0;1865;0;0;0;0;4;0;2563;0;0;0;0;5;0;6406;2;0;0;0;0;0;6;0;4650;2;0;0;0;0;0;7;0;3254;0;0;0;0;8;0;3267;0;0;0;0;9;0;1723;0;0;0;0
19.12.17;18:15:00;1;325;7013;0;2;0;3040;0;0;0;0;3;0;1865;0;0;0;0;4;0;2563;0;0;0;0;5;0;6406;2;0;0;0;0;0;6;0;4650;2;0;0;0;0;0;7;0;3254;0;0;0;0;8;0;3267;0;0;0;0;9;0;1723;0;0;0;0
19.12.17;18:10:00;1;520;6985;0;2;0;3040;0;0;0;0;3;0;1865;0;0;0;0;4;0;2563;0;0;0;0;5;0;6406;2;0;0;0;0;0;6;0;4650;2;0;0;0;0;0;7;0;3254;0;0;0;0;8;0;3267;0;0;0;0;9;0;1723;0;0;0;0
19.12.17;18:05:00;1;1062;6929;0;2;0;3040;0;0;0;0;3;0;1865;0;0;0;0;4;0;2563;0;0;0;0;5;0;6406;2;0;0;0;0;0;6;0;4650;2;0;0;0;0;0;7;0;3254;0;0;0;0;8;0;3267;0;0;0;0;9;0;1723;0;0;0;0
19.12.17;18:00:00;1;368;6875;0;2;0;3040;0;0;0;0;3;0;1865;0;0;0;0;4;0;2563;0;0;0;0;5;0;6406;2;0;0;0;0;0;6;0;4650;2;0;0;0;0;0;7;0;3254;0;0;0;0;8;0;3267;0;0;0;0;9;0;1723;0;0;0;0
19.12.17;17:55:00;1;357;6845;0;2;0;3040;0;0;0;0;3;0;1865;0;0;0;0;4;0;2563;0;0;0;0;5;0;6406;2;0;0;0;0;0;6;0;4650;2;0;0;0;0;0;7;0;3254;0;0;0;0;8;0;3267;0;0;0;0;9;0;1723;0;0;0;0
19.12.17;17:50:00;1;559;6797;0;2;0;3040;0;0;0;0;3;0;1865;0;0;0;0;4;0;2563;0;0;0;0;5;0;6406;2;0;0;0;0;0;6;0;4650;2;0;0;0;0;0;7;0;3254;0;0;0;0;8;0;3267;0;0;0;0;9;0;1723;0;0;0;0
19.12.17;17:45:00;1;347;6756;0;2;0;3040;0;0;0;0;3;0;1865;0;0;0;0;4;0;2563;0;0;0;0;5;0;6406;2;0;0;0;0;0;6;0;4650;2;0;0;0;0;0;7;0;3254;0;0;0;0;8;0;3267;0;0;0;0;9;0;1723;0;0;0;0
19.12.17;17:40:00;1;414;6727;0;2;0;3040;0;0;0;0;3;0;1865;0;0;0;0;4;0;2563;0;0;0;0;5;0;6406;2;0;0;0;0;0;6;0;4650;2;0;0;0;0;0;7;0;3254;0;0;0;0;8;0;3267;0;0;0;0;9;0;1723;0;0;0;0
19.12.17;17:35:00;1;682;6677;0;2;0;3040;0;0;0;0;3;0;1865;0;0;0;0;4;0;2563;0;0;0;0;5;0;6406;2;0;0;0;0;0;6;0;4650;2;0;0;0;0;0;7;0;3254;0;0;0;0;8;0;3267;0;0;0;0;9;0;1723;0;0;0;0
19.12.17;17:30:00;1;297;6644;0;2;0;3040;0;0;0;0;3;0;1865;0;0;0;0;4;0;2563;0;0;0;0;5;0;6406;2;0;0;0;0;0;6;0;4650;2;0;0;0;0;0;7;0;3254;0;0;0;0;8;0;3267;0;0;0;0;9;0;1723;0;0;0;0
19.12.17;17:25:00;1;312;6619;0;2;0;3040;0;0;0;0;3;0;1865;0;0;0;0;4;0;2563;0;0;0;0;5;0;6406;2;0;0;0;0;0;6;0;4650;2;0;0;0;0;0;7;0;3254;0;0;0;0;8;0;3267;0;0;0;0;9;0;1723;0;0;0;0
19.12.17;17:20:00;1;499;6576;0;2;0;3040;0;0;0;0;3;0;1865;0;0;0;0;4;0;2563;0;0;0;0;5;0;6406;2;0;0;0;0;0;6;0;4650;2;0;0;0;0;0;7;0;3254;0;0;0;0;8;0;3267;0;0;0;0;9;0;1723;0;0;0;0
19.12.17;17:15:00;1;298;6541;0;2;0;3040;0;0;0;0;3;0;1865;0;0;0;0;4;0;2563;0;0;0;0;5;0;6406;2;0;0;0;0;0;6;0;4650;2;0;0;0;0;0;7;0;3254;0;0;0;0;8;0;3267;0;0;0;0;9;0;1723;0;0;0;0
19.12.17;17:10:00;1;309;6516;0;2;0;3040;0;0;0;0;3;0;1865;0;0;0;0;4;0;2563;0;0;0;0;5;0;6406;2;0;0;0;0;0;6;0;4650;2;0;0;0;0;0;7;0;3254;0;0;0;0;8;0;3267;0;0;0;0;9;0;1723;0;0;0;0
19.12.17;17:05:00;1;518;6471;0;2;0;3040;0;0;0;0;3;0;1865;0;0;0;0;4;0;2563;0;0;0;0;5;0;6406;2;0;0;0;0;0;6;0;4650;2;0;0;0;0;0;7;0;3254;0;0;0;0;8;0;3267;0;0;0;0;9;0;1723;0;0;0;0
19.12.17;17:00:00;1;338;6436;0;2;0;3040;0;0;0;0;3;0;1865;0;0;0;0;4;0;2563;0;0;0;0;5;0;6406;2;0;0;0;0;0;6;0;4650;2;0;0;0;0;0;7;0;3254;0;0;0;0;8;0;3267;0;0;0;0;9;0;1723;0;0;0;0
19.12.17;16:55:00;1;372;6408;0;2;0;3040;0;0;0;0;3;0;1865;0;0;0;0;4;0;2563;0;0;0;0;5;0;6406;2;0;0;0;0;0;6;0;4650;2;0;0;0;0;0;7;0;3254;0;0;0;0;8;0;3267;0;0;0;0;9;0;1723;0;0;0;0
19.12.17;16:50:00;1;542;6357;0;2;0;3040;0;0;0;0;3;0;1865;0;0;0;0;4;0;2563;0;0;0;0;5;0;6406;2;0;0;0;0;0;6;0;4650;2;0;0;0;0;0;7;0;3254;0;0;0;0;8;0;3267;0;0;0;0;9;0;1723;0;0;0;0
19.12.17;16:45:00;1;326;6322;0;2;0;3040;0;0;0;0;3;0;1865;0;0;0;0;4;0;2563;0;0;0;0;5;0;6406;2;0;0;0;0;0;6;0;4650;2;0;0;0;0;0;7;0;3254;0;0;0;0;8;0;3267;0;0;0;0;9;0;1723;0;0;0;0
19.12.17;16:40:00;1;296;6295;0;2;0;3040;0;0;0;0;3;0;1865;0;0;0;0;4;0;2563;0;0;0;0;5;0;6406;2;0;0;0;0;0;6;0;4650;2;0;0;0;0;0;7;0;3254;0;0;0;0;8;0;3267;0;0;0;0;9;0;1723;0;0;0;0
19.12.17;16:35:00;1;412;6253;0;2;0;3040;0;0;0;0;3;0;1865;0;0;72;3;4;0;2563;0;0;0;0;5;0;6406;2;0;0;0;0;0;6;0;4650;2;0;0;0;0;0;7;0;3254;0;0;0;0;8;0;3267;0;0;0;0;9;0;1723;0;0;0;0
19.12.17;16:30:00;1;258;6225;0;2;0;3040;2;0;288;7;3;0;1865;6;0;325;11;4;0;2563;0;0;55;4;5;0;6406;2;0;0;0;0;0;6;0;4650;2;0;0;0;0;0;7;0;3254;0;0;0;0;8;0;3267;0;0;0;0;9;0;1723;0;0;0;0
19.12.17;16:25:00;1;294;6204;0;2;0;3040;6;0;350;7;3;0;1865;6;1;408;11;4;0;2563;1;0;119;5;5;0;6406;26;0;0;367;365;17;6;0;4650;2;4;3;150;381;13;7;0;3254;0;0;132;5;8;0;3267;0;0;134;4;9;0;1723;0;0;186;4
19.12.17;16:20:00;1;536;6164;0;2;0;3040;6;0;379;7;3;0;1865;6;4;426;11;4;0;2563;1;0;161;5;5;0;6406;23;0;2;411;439;17;6;0;4650;23;5;4;181;546;16;7;0;3254;6;0;314;10;8;0;3267;6;0;320;9;9;0;1723;6;0;337;6
19.12.17;16:15:00;1;258;6133;0;2;0;3040;6;0;381;8;3;0;1865;6;1;459;11;4;0;2563;1;0;163;5;5;0;6406;23;0;3;415;457;18;6;0;4650;23;6;5;181;550;16;7;0;3254;6;0;318;10;8;0;3267;6;0;325;10;9;0;1723;6;0;342;7
19.12.17;16:10:00;1;258;6111;0;2;0;3040;6;0;393;8;3;0;1865;6;2;472;11;4;0;2563;1;0;186;6;5;0;6406;26;0;0;427;647;17;6;0;4650;23;6;5;182;569;17;7;0;3254;6;0;356;10;8;0;3267;6;0;363;10;9;0;1723;6;0;386;7
19.12.17;16:05:00;1;536;6074;0;2;0;3040;6;0;405;8;3;0;1865;6;3;492;11;4;0;2563;1;0;210;6;5;7;6406;4;2;2;424;668;18;6;0;4650;23;5;4;323;586;17;7;0;3254;6;0;390;11;8;0;3267;6;0;397;10;9;0;1723;6;0;431;7
19.12.17;16:00:00;1;300;6035;0;2;3;3040;6;12;397;8;3;2;1865;3;10;481;12;4;0;2563;1;0;205;6;5;79;6405;4;24;27;384;608;19;6;40;4650;1;22;25;489;405;18;7;1;3254;6;2;425;11;8;2;3267;6;2;427;10;9;2;1723;3;2;456;7
19.12.17;15:55:00;1;291;6010;0;2;4;3040;6;7;424;8;3;1;1865;6;6;532;12;4;0;2563;3;0;235;6;5;115;6398;4;49;35;384;608;19;6;65;4647;4;28;28;459;358;19;7;2;3254;6;4;477;11;8;1;3267;6;4;480;11;9;2;1723;6;3;529;7
19.12.17;15:50:00;1;473;5977;0;2;0;3039;6;0;435;9;3;1;1865;6;6;524;12;4;0;2563;3;0;231;6;5;120;6388;4;52;42;384;608;19;6;65;4641;4;26;26;459;358;19;7;2;3253;6;6;478;11;8;1;3267;6;8;481;11;9;2;1723;6;7;497;7
19.12.17;15:45:00;1;191;5942;0;2;10;3039;3;18;409;9;3;1;1865;6;5;531;12;4;2;2563;3;2;199;7;5;126;6379;4;54;43;384;608;19;6;70;4636;4;45;40;459;357;19;7;2;3253;6;8;458;12;8;2;3267;6;8;461;11;9;2;1722;6;2;530;7
19.12.17;15:40:00;1;192;5926;0;2;75;3039;4;100;365;9;3;7;1864;6;13;549;12;4;24;2563;3;25;198;7;5;204;6368;4;102;82;384;608;19;6;118;4629;4;67;62;459;358;19;7;36;3253;6;70;446;12;8;38;3267;6;66;445;11;9;4;1722;6;8;555;7
19.12.17;15:35:00;1;426;5903;0;2;117;3032;4;144;384;9;3;56;1864;6;87;494;12;4;60;2561;3;62;198;7;5;282;6350;4;138;117;384;608;19;6;159;4619;4;83;71;459;358;19;7;97;3251;4;124;456;12;8;95;3264;4;127;434;11;9;0;1722;6;0;599;7
19.12.17;15:30:00;1;192;5865;0;2;157;3023;4;188;392;9;3;90;1860;4;127;484;12;4;108;2556;3;113;231;7;5;349;6327;4;180;147;384;608;19;6;201;4606;4;120;104;459;358;19;7;136;3243;4;168;471;12;8;134;3256;4;175;470;11;9;80;1722;4;100;478;8
19.12.17;15:25:00;1;192;5849;0;2;133;3010;4;159;381;9;3;74;1852;4;109;457;12;4;82;2547;5;85;204;7;5;310;6298;4;154;127;384;608;19;6;181;4589;4;117;97;459;358;19;7;128;3231;4;154;454;12;8;106;3245;4;147;489;11;9;9;1715;6;14;580;7
19.12.17;15:20:00;1;760;5832;0;2;99;2998;4;125;374;9;3;23;1846;6;37;538;12;4;53;2540;3;55;198;7;5;253;6272;4;123;108;384;608;19;6;142;4574;4;73;62;458;358;19;7;58;3220;4;96;448;12;8;63;3236;4;98;433;11;9;14;1715;6;21;528;8
19.12.17;15:15:00;1;209;5788;0;2;128;2990;4;156;387;9;3;72;1844;4;109;503;12;4;79;2535;3;83;204;7;5;308;6251;4;158;128;384;608;19;6;178;4562;4;111;96;459;357;19;7;111;3215;4;144;434;12;8;109;3230;4;144;430;11;9;9;1714;6;12;577;8
19.12.17;15:10:00;1;578;5770;0;2;103;2979;4;132;381;10;3;29;1838;4;42;533;12;4;59;2529;5;61;205;7;5;265;6225;4;134;115;384;608;19;6;157;4547;4;87;74;459;358;19;7;96;3206;4;114;420;12;8;91;3221;4;121;424;11;9;9;1713;6;14;565;8
19.12.17;15:05:00;1;743;5740;0;2;104;2970;4;131;376;10;3;38;1835;6;61;497;12;4;56;2523;3;58;198;7;5;268;6203;4;127;112;384;608;19;6;154;4533;4;83;71;459;358;19;7;93;3198;4;121;426;12;8;84;3213;4;121;429;12;9;0;1712;6;0;596;8
19.12.17;15:00:00;1;236;5690;0;2;95;2962;4;120;374;10;3;18;1832;6;31;525;12;4;39;2519;3;41;198;7;5;240;6181;4;117;99;384;608;19;6;141;4520;4;75;68;459;358;19;7;67;3190;4;108;415;12;8;72;3206;4;105;444;12;9;14;1712;3;24;531;8
19.12.17;14:55:00;1;192;5670;0;2;133;2954;4;160;382;10;3;53;1831;6;79;538;13;4;82;2515;3;85;208;7;5;309;6161;4;152;128;386;608;19;6;175;4509;4;93;80;459;358;19;7;97;3184;4;132;454;12;8;97;3200;4;131;452;12;9;26;1711;6;34;560;8
19.12.17;14:50:00;1;852;5654;0;2;206;2943;4;237;390;10;3;121;1827;4;162;521;13;4;156;2509;5;163;235;7;5;457;6134;4;234;188;415;608;19;6;255;4493;4;133;111;459;358;19;7;193;3177;4;232;464;12;8;195;3192;4;233;462;12;9;105;1709;4;131;519;9
19.12.17;14:45:00;1;191;5602;0;2;157;2926;4;184;383;10;3;87;1817;4;127;519;13;4;100;2496;5;104;215;7;5;344;6096;4;177;144;384;608;19;6;200;4472;4;103;86;459;358;19;7;135;3161;4;176;486;12;8;140;3176;4;181;481;12;9;82;1700;4;107;488;9
19.12.17;14:40:00;1;191;5586;0;2;140;2912;4;168;382;10;3;78;1809;4;115;504;13;4;84;2487;3;88;207;7;5;329;6068;4;164;137;393;613;19;6;186;4455;4;96;80;459;358;18;7;109;3149;4;146;461;12;8;104;3164;4;147;466;12;9;22;1693;3;29;562;9
19.12.17;14:35:00;1;479;5570;0;2;202;2900;4;231;389;10;3;118;1803;4;156;522;13;4;154;2480;5;160;236;8;5;455;6038;4;234;196;402;606;19;6;260;4438;4;138;114;459;358;18;7;207;3140;4;240;480;12;8;204;3155;4;241;485;12;9;110;1691;4;138;510;9
19.12.17;14:30:00;1;380;5523;0;2;150;2883;4;178;379;10;3;85;1793;4;123;507;13;4;100;2467;5;104;211;8;5;356;6001;4;181;154;384;608;19;6;207;4417;4;116;102;459;358;18;7;132;3122;4;169;477;12;8;136;3138;4;170;481;12;9;13;1682;4;19;580;9
19.12.17;14:25:00;1;371;5491;0;2;119;2871;4;147;381;11;3;63;1785;4;101;506;13;4;68;2459;3;71;198;8;5;293;5972;4;146;120;384;608;19;6;173;4400;4;106;91;459;358;18;7;88;3112;4;124;463;12;8;82;3127;4;119;477;12;9;15;1680;4;23;538;9
19.12.17;14:20:00;1;596;5460;0;2;134;2861;4;161;384;11;3;69;1780;4;109;513;13;4;83;2453;3;87;208;8;5;316;5947;4;161;129;395;608;19;6;200;4386;4;97;93;471;431;18;7;100;3104;4;126;469;12;8;90;3120;4;123;478;12;9;23;1678;3;34;548;9
19.12.17;14:15:00;1;218;5406;0;2;279;2850;4;314;403;11;3;165;1774;4;211;521;14;4;217;2446;5;226;235;8;5;594;5920;4;306;251;410;654;19;6;433;4368;4;226;241;586;570;18;7;253;3096;4;293;473;12;8;242;3112;4;283;490;12;9;129;1676;4;162;527;10
19.12.17;14:10:00;1;286;5388;0;2;392;2827;4;430;410;11;3;242;1761;4;288;527;14;4;330;2429;5;344;242;8;5;866;5868;4;440;373;423;697;19;6;640;4330;4;305;319;601;576;18;7;391;3075;4;430;476;12;8;400;3093;4;436;468;12;9;214;1665;4;247;536;10
19.12.17;14:05:00;1;2075;5344;0;2;371;2794;4;406;410;11;3;228;1741;4;275;522;14;4;310;2401;5;323;244;8;5;845;5797;4;430;360;433;684;19;6;628;4277;4;328;333;607;580;18;7;386;3043;4;414;486;12;8;382;3060;4;420;482;12;9;206;1648;4;238;537;10
19.12.17;14:00:00;1;1410;5184;0;2;548;2763;4;590;414;12;3;338;1722;4;388;525;14;4;471;2375;5;491;249;8;5;1201;5726;4;617;517;433;704;19;6;917;4224;4;465;463;616;590;18;7;637;3011;4;674;482;12;8;621;3028;4;667;495;12;9;328;1630;4;368;541;10
19.12.17;13:55:00;1;258;5091;0;2;722;2718;4;773;422;12;3;454;1694;4;504;532;14;4;624;2337;5;649;248;8;5;1509;5623;4;786;651;442;726;19;6;1136;4146;4;572;583;616;586;18;7;817;2959;4;865;492;12;8;809;2978;4;863;495;12;9;438;1604;4;484;548;10
19.12.17;13:50:00;1;973;5069;0;2;568;2660;4;613;417;12;3;359;1657;4;410;530;14;4;484;2286;5;504;246;8;5;1248;5498;4;639;534;434;710;19;6;943;4052;4;478;496;614;593;18;7;666;2892;4;706;483;12;8;700;2911;4;749;512;12;9;362;1568;4;404;538;10
19.12.17;13:45:00;1;264;5019;0;2;638;2612;4;685;422;12;3;398;1627;4;447;531;14;4;528;2246;5;550;246;8;5;1241;5397;4;642;532;438;712;19;6;937;3976;4;485;480;612;588;18;7;738;2836;4;774;505;12;8;727;2852;4;781;480;12;9;374;1537;4;417;548;10
19.12.17;13:40:00;1;259;4997;0;2;909;2559;4;962;425;12;3;577;1594;4;634;535;14;4;781;2202;5;813;252;8;5;1818;5290;4;960;802;443;719;19;6;1388;3895;4;725;717;624;596;18;7;1197;2774;4;1269;503;12;8;1208;2791;4;1275;485;12;9;649;1506;4;705;543;10